SDM232 USTR-USMM

Flight info

Callsign SDM232
Flight time 1h 27m
Altitude 37000
Route LAKED1R LAKED L165 LUGIK T827 RIKBI RIKBI3E
Aircraft B77W/H-SDE1E2E3FGHIJ2J3J4J5M1RWXY/LB1D1

Departure

Time 2026-04-29 16:51
Airport Roshchino International Airport (USTR)

Arrival

Time 2026-04-29 18:18
Airport Nadym Airport (USMM)
Time Latitude Longitude Altitude Speed Heading
2026-04-29 16:51 57.48245 65.34812 13058 ft 420 kts 12°
2026-04-29 16:51 57.51081 65.36304 13984 ft 426 kts 12°
2026-04-29 16:52 57.53956 65.37818 14907 ft 432 kts 12°
2026-04-29 16:52 57.56875 65.39357 15787 ft 439 kts 12°
2026-04-29 16:52 57.59840 65.40919 16633 ft 446 kts 12°
2026-04-29 16:52 57.62848 65.42509 17477 ft 452 kts 12°
2026-04-29 16:53 57.65899 65.44122 18275 ft 458 kts 12°
2026-04-29 16:53 57.68989 65.45759 19090 ft 464 kts 12°
2026-04-29 16:53 57.72116 65.47419 19877 ft 469 kts 12°
2026-04-29 16:53 57.75272 65.49098 20640 ft 474 kts 12°
2026-04-29 16:54 57.78468 65.50802 21383 ft 479 kts 12°
2026-04-29 16:54 57.81699 65.52526 22068 ft 485 kts 12°
2026-04-29 16:54 57.84967 65.54276 22739 ft 490 kts 12°
2026-04-29 16:54 57.88220 65.56020 23406 ft 495 kts 12°
2026-04-29 16:55 57.91542 65.57803 24052 ft 499 kts 12°
2026-04-29 16:55 57.94901 65.59609 24657 ft 504 kts 12°
2026-04-29 16:55 57.98303 65.61270 25238 ft 506 kts
2026-04-29 16:55 58.01778 65.62332 25820 ft 505 kts
2026-04-29 16:56 58.05281 65.62961 26349 ft 508 kts 360°
2026-04-29 16:56 58.08824 65.63530 26865 ft 512 kts 359°
2026-04-29 16:56 58.12328 65.64084 27383 ft 516 kts 359°
2026-04-29 16:56 58.15975 65.64676 27900 ft 519 kts 359°
2026-04-29 16:57 58.19586 65.65290 28364 ft 523 kts 360°
2026-04-29 16:57 58.23220 65.65929 28775 ft 526 kts 360°
2026-04-29 16:57 58.26873 65.66588 29187 ft 529 kts 360°
2026-04-29 16:57 58.30549 65.67260 29587 ft 532 kts 360°
2026-04-29 16:58 58.34244 65.67938 29958 ft 534 kts 360°
2026-04-29 16:58 58.37949 65.68619 30357 ft 536 kts 360°
2026-04-29 16:58 58.41660 65.69302 30832 ft 535 kts 360°
2026-04-29 16:58 58.45360 65.69984 31349 ft 533 kts 360°
2026-04-29 16:59 58.49056 65.70665 31810 ft 533 kts 360°
2026-04-29 16:59 58.52757 65.71346 32246 ft 532 kts 360°
2026-04-29 16:59 58.56438 65.72023 32695 ft 531 kts 360°
2026-04-29 16:59 58.60107 65.72700 33142 ft 530 kts 360°
2026-04-29 17:00 58.63778 65.73377 33541 ft 529 kts 360°
2026-04-29 17:00 58.67400 65.74048 33947 ft 529 kts 360°
2026-04-29 17:00 58.71060 65.74728 34320 ft 528 kts 360°
2026-04-29 17:00 58.74719 65.75407 34648 ft 529 kts 360°
2026-04-29 17:01 58.78389 65.76089 35008 ft 529 kts
2026-04-29 17:01 58.82050 65.76772 35347 ft 528 kts
2026-04-29 17:01 58.85706 65.77456 35698 ft 528 kts
2026-04-29 17:01 58.89356 65.78141 36015 ft 528 kts
2026-04-29 17:02 58.93018 65.78829 36337 ft 528 kts
2026-04-29 17:02 58.96683 65.79520 36580 ft 529 kts
2026-04-29 17:02 59.00349 65.80213 36914 ft 527 kts
2026-04-29 17:02 59.03994 65.80904 37147 ft 527 kts
2026-04-29 17:03 59.11250 65.82282 37093 ft 520 kts
2026-04-29 17:03 59.18434 65.83657 37098 ft 518 kts
2026-04-29 17:04 59.25613 65.85022 37092 ft 518 kts
2026-04-29 17:04 59.32806 65.86407 37090 ft 519 kts
2026-04-29 17:05 59.39952 65.87786 37089 ft 521 kts
2026-04-29 17:05 59.47179 65.89043 37085 ft 522 kts
2026-04-29 17:06 59.54426 65.90239 37083 ft 523 kts
2026-04-29 17:06 59.61661 65.91471 37074 ft 518 kts
2026-04-29 17:07 59.68845 65.93054 37076 ft 525 kts
2026-04-29 17:07 59.75861 65.97183 37084 ft 535 kts 20°
2026-04-29 17:08 59.82591 66.03662 37084 ft 539 kts 25°
2026-04-29 17:08 59.89261 66.10532 37077 ft 540 kts 25°
2026-04-29 17:09 59.95950 66.17361 37071 ft 539 kts 25°
2026-04-29 17:09 60.02638 66.24108 37063 ft 538 kts 25°
2026-04-29 17:10 60.09321 66.30844 37064 ft 536 kts 25°
2026-04-29 17:10 60.15925 66.37542 37064 ft 534 kts 25°
2026-04-29 17:11 60.22544 66.44294 37062 ft 533 kts 25°
2026-04-29 17:11 60.29144 66.51062 37064 ft 532 kts 25°
2026-04-29 17:12 60.35730 66.57840 37061 ft 531 kts 25°
2026-04-29 17:12 60.41195 66.63489 37054 ft 531 kts 25°
2026-04-29 17:13 60.48882 66.71473 37061 ft 532 kts 25°
2026-04-29 17:13 60.55475 66.78355 37057 ft 533 kts 25°
2026-04-29 17:14 60.62060 66.85265 37059 ft 533 kts 25°
2026-04-29 17:14 60.68651 66.92203 37055 ft 533 kts 25°
2026-04-29 17:15 60.75241 66.99175 37055 ft 533 kts 26°
2026-04-29 17:15 60.81826 67.06182 37057 ft 533 kts 26°
2026-04-29 17:16 60.88411 67.13219 37057 ft 534 kts 26°
2026-04-29 17:16 60.94990 67.20278 37055 ft 533 kts 26°
2026-04-29 17:17 61.01523 67.27322 37055 ft 533 kts 26°
2026-04-29 17:17 61.08080 67.34435 37054 ft 532 kts 26°
2026-04-29 17:18 61.14630 67.41574 37053 ft 531 kts 26°
2026-04-29 17:18 61.21166 67.48732 37058 ft 531 kts 26°
2026-04-29 17:19 61.27701 67.55921 37042 ft 531 kts 26°
2026-04-29 17:19 61.34239 67.63148 37045 ft 532 kts 26°
2026-04-29 17:20 61.40765 67.70396 37047 ft 532 kts 26°
2026-04-29 17:20 61.47284 67.77668 37041 ft 531 kts 26°
2026-04-29 17:21 61.53805 67.84984 37046 ft 532 kts 26°
2026-04-29 17:21 61.60329 67.92333 37048 ft 532 kts 26°
2026-04-29 17:22 61.66851 67.99717 37045 ft 533 kts 27°
2026-04-29 17:22 61.73374 68.07140 37047 ft 533 kts 27°
2026-04-29 17:23 61.79910 68.14542 37046 ft 533 kts 26°
2026-04-29 17:23 61.86532 68.21628 37046 ft 533 kts 25°
2026-04-29 17:24 61.93119 68.28588 37049 ft 533 kts 25°
2026-04-29 17:24 61.99750 68.35682 37047 ft 533 kts 25°
2026-04-29 17:25 62.06360 68.42846 37048 ft 533 kts 25°
2026-04-29 17:25 62.12963 68.50048 37043 ft 532 kts 25°
2026-04-29 17:26 62.19551 68.57266 37045 ft 532 kts 25°
2026-04-29 17:26 62.26134 68.64510 37047 ft 531 kts 25°
2026-04-29 17:27 62.32697 68.71771 37045 ft 531 kts 25°
2026-04-29 17:27 62.39263 68.79072 37036 ft 530 kts 25°
2026-04-29 17:28 62.45806 68.86379 37034 ft 529 kts 25°
2026-04-29 17:28 62.52337 68.93712 37039 ft 528 kts 26°
2026-04-29 17:29 62.58856 69.01063 37040 ft 528 kts 26°
2026-04-29 17:29 62.64262 69.07192 37035 ft 527 kts 26°
2026-04-29 17:30 62.71855 69.15840 37035 ft 527 kts 26°
2026-04-29 17:30 62.78350 69.23279 37036 ft 527 kts 26°
2026-04-29 17:31 62.84800 69.30701 37043 ft 527 kts 26°
2026-04-29 17:31 62.91286 69.38206 37038 ft 527 kts 26°
2026-04-29 17:32 62.97770 69.45743 37041 ft 527 kts 26°
2026-04-29 17:32 63.04245 69.53306 37037 ft 526 kts 26°
2026-04-29 17:33 63.10718 69.60909 37038 ft 526 kts 26°
2026-04-29 17:33 63.17178 69.68535 37040 ft 526 kts 26°
2026-04-29 17:34 63.23628 69.76187 37030 ft 526 kts 26°
2026-04-29 17:34 63.30075 69.83874 37026 ft 525 kts 26°
2026-04-29 17:35 63.38633 69.94142 37030 ft 524 kts 27°
2026-04-29 17:36 63.45048 70.01885 37026 ft 524 kts 27°
2026-04-29 17:36 63.51446 70.09645 37028 ft 523 kts 27°
2026-04-29 17:37 63.57836 70.17432 37027 ft 522 kts 27°
2026-04-29 17:37 63.64176 70.25202 37018 ft 522 kts 27°
2026-04-29 17:38 63.70541 70.33044 37019 ft 522 kts 27°
2026-04-29 17:38 63.76928 70.40952 36623 ft 527 kts 27°
2026-04-29 17:38 63.80138 70.44944 36105 ft 525 kts 27°
2026-04-29 17:39 63.83320 70.48911 35597 ft 520 kts 27°
2026-04-29 17:39 63.86479 70.52859 35073 ft 516 kts 27°
2026-04-29 17:39 63.89607 70.56780 34566 ft 512 kts 27°
2026-04-29 17:39 63.92717 70.60686 34059 ft 509 kts 27°
2026-04-29 17:40 63.95800 70.64569 33561 ft 505 kts 27°
2026-04-29 17:40 63.98868 70.68443 33071 ft 502 kts 27°
2026-04-29 17:40 64.01908 70.72292 32589 ft 498 kts 27°
2026-04-29 17:40 64.04925 70.76120 32112 ft 494 kts 27°
2026-04-29 17:41 64.07918 70.79923 31627 ft 490 kts 27°
2026-04-29 17:41 64.10884 70.83702 31073 ft 482 kts 27°
2026-04-29 17:41 64.13779 70.87404 30040 ft 473 kts 27°
2026-04-29 17:41 64.16634 70.91063 28888 ft 468 kts 27°
2026-04-29 17:42 64.19460 70.94696 27676 ft 464 kts 27°
2026-04-29 17:42 64.22264 70.98307 26459 ft 460 kts 27°
2026-04-29 17:42 64.25041 71.01889 25299 ft 454 kts 27°
2026-04-29 17:42 64.27737 71.05376 24194 ft 447 kts 27°
2026-04-29 17:43 64.30434 71.08871 23124 ft 446 kts 28°
2026-04-29 17:43 64.33179 71.12435 22595 ft 445 kts 28°
2026-04-29 17:43 64.35860 71.15927 22153 ft 441 kts 28°
2026-04-29 17:43 64.38522 71.19401 21710 ft 437 kts 28°
2026-04-29 17:44 64.41162 71.22854 21268 ft 433 kts 28°
2026-04-29 17:44 64.43736 71.26225 20839 ft 430 kts 28°
2026-04-29 17:44 64.46360 71.29673 20417 ft 426 kts 28°
2026-04-29 17:44 64.48919 71.33044 20092 ft 419 kts 28°
2026-04-29 17:45 64.51395 71.36312 19792 ft 413 kts 28°
2026-04-29 17:45 64.53878 71.39594 19481 ft 408 kts 28°
2026-04-29 17:45 64.56383 71.42911 18852 ft 412 kts 28°
2026-04-29 17:45 64.58848 71.46183 18316 ft 413 kts 28°
2026-04-29 17:46 64.61341 71.49501 18132 ft 402 kts 28°
2026-04-29 17:46 64.63715 71.52668 17810 ft 398 kts 28°
2026-04-29 17:46 64.66141 71.55911 17085 ft 405 kts 28°
2026-04-29 17:46 64.68612 71.59223 16578 ft 403 kts 28°
2026-04-29 17:47 64.71039 71.62477 16143 ft 401 kts 28°
2026-04-29 17:47 64.73419 71.65675 15739 ft 397 kts 28°
2026-04-29 17:47 64.75743 71.68810 15320 ft 374 kts 28°
2026-04-29 17:47 64.77958 71.71806 14531 ft 363 kts 28°
2026-04-29 17:48 64.80121 71.74744 13637 ft 356 kts 29°
2026-04-29 17:48 64.82250 71.77641 12713 ft 350 kts 28°
2026-04-29 17:48 64.84340 71.80484 11832 ft 344 kts 28°
2026-04-29 17:48 64.86391 71.83283 10964 ft 337 kts 28°
2026-04-29 17:49 64.88397 71.86026 10593 ft 332 kts 28°
2026-04-29 17:49 64.90418 71.88794 10447 ft 341 kts 28°
2026-04-29 17:49 64.92468 71.91601 10266 ft 340 kts 28°
2026-04-29 17:49 64.94494 71.94386 10076 ft 335 kts 28°
2026-04-29 17:50 64.96486 71.97125 9977 ft 327 kts 28°
2026-04-29 17:50 64.98440 71.99821 9983 ft 325 kts 29°
2026-04-29 17:50 65.00403 72.02528 9992 ft 328 kts 28°
2026-04-29 17:50 65.02388 72.05270 9990 ft 331 kts 28°
2026-04-29 17:51 65.04371 72.08018 9981 ft 326 kts 28°
2026-04-29 17:51 65.06291 72.10692 9972 ft 315 kts 29°
2026-04-29 17:51 65.08148 72.13282 9975 ft 308 kts 28°
2026-04-29 17:51 65.09993 72.15730 9975 ft 305 kts 20°
2026-04-29 17:52 65.12038 72.16719 9975 ft 300 kts 356°
2026-04-29 17:52 65.13449 72.16498 9855 ft 302 kts 349°
2026-04-29 17:52 65.16198 72.15535 9537 ft 300 kts 347°
2026-04-29 17:52 65.18241 72.14724 9279 ft 295 kts 347°
2026-04-29 17:53 65.20248 72.13911 9026 ft 290 kts 347°
2026-04-29 17:53 65.22226 72.13098 8766 ft 286 kts 347°
2026-04-29 17:53 65.24180 72.12291 8509 ft 283 kts 347°
2026-04-29 17:53 65.26072 72.11277 8232 ft 274 kts 335°
2026-04-29 17:54 65.27795 72.09326 8011 ft 276 kts 328°
2026-04-29 17:54 65.29492 72.07091 7762 ft 280 kts 327°
2026-04-29 17:54 65.31194 72.04807 7514 ft 280 kts 327°
2026-04-29 17:54 65.32890 72.02518 7291 ft 280 kts 327°
2026-04-29 17:55 65.34589 72.00242 7033 ft 279 kts 327°
2026-04-29 17:55 65.36270 71.97983 6773 ft 275 kts 327°
2026-04-29 17:55 65.37933 71.95758 6524 ft 271 kts 327°
2026-04-29 17:55 65.39573 71.93574 6272 ft 269 kts 327°
2026-04-29 17:56 65.41200 71.91401 6070 ft 265 kts 327°
2026-04-29 17:56 65.42803 71.89273 6021 ft 264 kts 327°
2026-04-29 17:56 65.44427 71.87114 5986 ft 269 kts 327°
2026-04-29 17:56 65.46066 71.84907 5982 ft 270 kts 327°
2026-04-29 17:57 65.47709 71.82695 5977 ft 270 kts 327°
2026-04-29 17:57 65.49350 71.80486 5974 ft 270 kts 327°
2026-04-29 17:57 65.50990 71.78276 5967 ft 270 kts 327°
2026-04-29 17:57 65.52092 71.76920 5949 ft 268 kts 335°
2026-04-29 17:58 65.54576 71.76529 5890 ft 282 kts 11°
2026-04-29 17:58 65.56449 71.78105 5728 ft 287 kts 20°
2026-04-29 17:58 65.58306 71.80034 5567 ft 286 kts 21°
2026-04-29 17:58 65.60097 71.81955 5391 ft 285 kts 22°
2026-04-29 17:59 65.61898 71.83900 5211 ft 282 kts 22°
2026-04-29 17:59 65.63672 71.85828 5052 ft 277 kts 22°
2026-04-29 17:59 65.65417 71.87738 5009 ft 275 kts 22°
2026-04-29 17:59 65.67176 71.89665 4972 ft 279 kts 22°
2026-04-29 18:00 65.68946 71.91612 4969 ft 280 kts 22°
2026-04-29 18:00 65.70726 71.93571 4966 ft 281 kts 22°
2026-04-29 18:00 65.72532 71.95562 4967 ft 282 kts 22°
2026-04-29 18:00 65.74321 71.97537 4965 ft 281 kts 22°
2026-04-29 18:01 65.76106 71.98894 4950 ft 267 kts
2026-04-29 18:01 65.77885 71.98202 4960 ft 256 kts 331°
2026-04-29 18:01 65.79238 71.95598 4965 ft 247 kts 301°
2026-04-29 18:01 65.79852 71.91749 4961 ft 241 kts 272°
2026-04-29 18:02 65.79575 71.87804 4971 ft 243 kts 243°
2026-04-29 18:02 65.78494 71.84676 4969 ft 245 kts 214°
2026-04-29 18:02 65.76897 71.83304 4961 ft 247 kts 185°
2026-04-29 18:02 65.75217 71.84087 4955 ft 251 kts 155°
2026-04-29 18:03 65.73890 71.86841 4957 ft 256 kts 126°
2026-04-29 18:03 65.73267 71.90896 4953 ft 260 kts 97°
2026-04-29 18:03 65.73527 71.95233 4956 ft 263 kts 66°
2026-04-29 18:03 65.74609 71.98756 4967 ft 263 kts 37°
2026-04-29 18:04 65.76245 72.00611 4967 ft 261 kts
2026-04-29 18:04 65.78034 72.00358 4969 ft 259 kts 338°
2026-04-29 18:04 65.79526 71.98067 4972 ft 254 kts 309°
2026-04-29 18:04 65.80349 71.94360 4962 ft 249 kts 280°
2026-04-29 18:05 65.80306 71.90214 4969 ft 246 kts 251°
2026-04-29 18:05 65.79420 71.86700 4965 ft 246 kts 222°
2026-04-29 18:05 65.77922 71.84749 4964 ft 248 kts 193°
2026-04-29 18:05 65.76208 71.84885 4956 ft 252 kts 164°
2026-04-29 18:06 65.74719 71.87118 4963 ft 257 kts 135°
2026-04-29 18:06 65.73843 71.90913 4963 ft 262 kts 106°
2026-04-29 18:06 65.73812 71.95317 4956 ft 263 kts 77°
2026-04-29 18:06 65.74400 71.99554 4918 ft 268 kts 69°
2026-04-29 18:07 65.75122 72.03771 4722 ft 271 kts 68°
2026-04-29 18:07 65.75862 72.07971 4486 ft 270 kts 68°
2026-04-29 18:07 65.76603 72.12145 4232 ft 267 kts 68°
2026-04-29 18:07 65.77324 72.16185 4095 ft 259 kts 67°
2026-04-29 18:08 65.78020 72.20052 4042 ft 252 kts 68°
2026-04-29 18:08 65.78728 72.23987 4054 ft 254 kts 67°
2026-04-29 18:08 65.79437 72.27898 4040 ft 250 kts 67°
2026-04-29 18:08 65.80128 72.31718 4029 ft 243 kts 67°
2026-04-29 18:09 65.80808 72.35461 4035 ft 240 kts 67°
2026-04-29 18:09 65.81485 72.39197 4043 ft 241 kts 67°
2026-04-29 18:09 65.82154 72.42889 4032 ft 234 kts 67°
2026-04-29 18:09 65.82795 72.46417 4020 ft 222 kts 67°
2026-04-29 18:10 65.83418 72.49841 4031 ft 219 kts 67°
2026-04-29 18:10 65.83831 72.53409 3837 ft 222 kts 93°
2026-04-29 18:10 65.83425 72.56902 3568 ft 213 kts 129°
2026-04-29 18:10 65.82306 72.59120 3352 ft 207 kts 164°
2026-04-29 18:11 65.80920 72.59452 3143 ft 193 kts 188°
2026-04-29 18:11 65.79648 72.58852 3052 ft 179 kts 196°
2026-04-29 18:11 65.78459 72.58079 3111 ft 176 kts 197°
2026-04-29 18:11 65.77272 72.57288 3050 ft 179 kts 197°
2026-04-29 18:12 65.76056 72.56468 2719 ft 185 kts 197°
2026-04-29 18:12 65.74799 72.55585 2225 ft 191 kts 197°
2026-04-29 18:12 65.73514 72.54640 1840 ft 192 kts 197°
2026-04-29 18:12 65.72282 72.53708 1740 ft 177 kts 197°
2026-04-29 18:13 65.71124 72.52824 1742 ft 173 kts 197°
2026-04-29 18:13 65.69975 72.51946 1747 ft 174 kts 197°
2026-04-29 18:13 65.68822 72.51065 1763 ft 174 kts 197°
2026-04-29 18:13 65.67644 72.50799 1738 ft 171 kts 166°
2026-04-29 18:14 65.66509 72.51664 1772 ft 174 kts 165°
2026-04-29 18:14 65.65337 72.52574 1766 ft 178 kts 161°
2026-04-29 18:14 65.64186 72.53650 1741 ft 176 kts 159°
2026-04-29 18:14 65.63061 72.54774 1738 ft 174 kts 159°
2026-04-29 18:15 65.61952 72.55896 1744 ft 171 kts 158°
2026-04-29 18:15 65.60865 72.57008 1764 ft 174 kts 158°
2026-04-29 18:15 65.59736 72.58161 1768 ft 178 kts 158°
2026-04-29 18:15 65.58599 72.59320 1743 ft 175 kts 158°
2026-04-29 18:16 65.57509 72.60432 1627 ft 166 kts 158°
2026-04-29 18:16 65.56471 72.61488 1433 ft 158 kts 158°
2026-04-29 18:16 65.55470 72.62505 1257 ft 152 kts 158°
2026-04-29 18:16 65.54534 72.63455 1077 ft 140 kts 158°
2026-04-29 18:17 65.53652 72.64352 903 ft 137 kts 158°
2026-04-29 18:17 65.52767 72.65236 742 ft 138 kts 158°
2026-04-29 18:17 65.51886 72.66137 621 ft 138 kts 158°
2026-04-29 18:17 65.50999 72.67043 448 ft 140 kts 158°
2026-04-29 18:18 65.50107 72.67931 268 ft 137 kts 157°
2026-04-29 18:18 65.49220 72.68836 87 ft 139 kts 157°
2026-04-29 18:18 65.48418 72.69649 61 ft 98 kts 157°
2026-04-29 18:18 65.48003 72.70069 62 ft 26 kts 157°
2026-04-29 18:19 65.47881 72.70129 59 ft 5 kts 169°
2026-04-29 18:19 65.47873 72.70177 66 ft 3 kts 74°
2026-04-29 18:19 65.47887 72.70192 60 ft 3 kts
2026-04-29 18:19 65.47926 72.70150 58 ft 10 kts 335°
2026-04-29 18:20 65.48021 72.70053 61 ft 18 kts 337°
2026-04-29 18:20 65.48120 72.69952 60 ft 13 kts 337°
2026-04-29 18:20 65.48148 72.69760 59 ft 12 kts 251°
2026-04-29 18:20 65.48133 72.69667 59 ft 0 kts 247°
2026-04-29 18:21 65.48128 72.69641 67 ft 5 kts 247°
2026-04-29 18:21 65.48111 72.69526 58 ft 8 kts 263°
2026-04-29 18:22 65.48154 72.69412 57 ft 10 kts 329°
2026-04-29 18:22 65.48182 72.69293 57 ft 7 kts 245°
2026-04-29 18:22 65.48171 72.69252 67 ft 0 kts 242°
2026-04-29 18:22 65.48172 72.69254 67 ft 0 kts 242°